Location: Rounton
(54.4000°N, 1.3500°W)
Time: 07:11:53
(UTC+00:00)

Vanguard 1 Rocket - Pass Details

Date: 30 November 2021
Orbit: 651 x 4224 km, 34.3° (Epoch: 19 January)

Event Time Altitude Azimuth Distance (km) Brightness Sun altitude
Rises 05:59:56 0° 251° (WSW) 5,963 - -16.7°
Exits shadow 06:01:57 - 247° (WSW) 5,618 11.0 -16.4°
Reaches altitude 10° 06:03:34 10° 244° (WSW) 5,369 10.9 -16.1°
Maximum altitude 06:19:22 41° 182° (S) 4,665 11.1 -13.9°
Drops below altitude 10° 06:41:46 10° 123° (ESE) 7,422 13.5 -10.9°
Sets 06:48:02 0° 118° (ESE) 8,356 14.6 -10.0°
